Location: Marcé
(47.5801°N, 0.3280°W)
Time: 19:26:57
(UTC+01:00)

Tiros 1 despin weight - Pass Details

Date: 05 December 2021
Orbit: 592 x 641 km, 48.2° (Epoch: 21 January)

Event Time Altitude Azimuth Distance (km) Brightness Sun altitude
Rises 20:00:34 0° 281° (W) 2,826 ? -27.7°
Reaches altitude 10° 20:03:32 10° 261° (W) 1,924 ? -28.2°
Maximum altitude 20:06:19 17° 221° (SW) 1,541 ? -28.7°
Enters shadow 20:07:50 14° 197° (SSW) 1,666 ? -29.0°
